Regional Weather Roundup
Issued by NWS Albany, NY

Home | Current Version | Previous Version | Text Only | Print | Product List | Glossary On
Versions: 1 2 3 4 5 6 7 8 9 10 11 12 13 14 15 16 17 18 19 20 21 22 23 24 25 26 27
000
ASUS41 KALY 061010
RWRALY

NEW YORK STATE HOURLY WEATHER ROUNDUP
NATIONAL WEATHER SERVICE ALBANY NY
600 AM EDT FRI MAY 06 2016

NOTE: "FAIR" INDICATES FEW OR NO CLOUDS BELOW 12,000 FEET WITH NO
SIGNIFICANT WEATHER AND/OR NO OBSTRUCTIONS TO VISIBILITY.

NYZ032-033-038>043-046>054-057>066-NYZ062>081-082-084-061100-
EAST


CITY           SKY/WX    TMP DP  RH WIND       PRES   REMARKS
ALBANY         MOCLDY    51  41  68 N8        29.75R
GLENS FALLS    MOCLDY    48  38  68 N5        29.75R
POUGHKEEPSIE   LGT RAIN  51  47  86 N3        29.69F
NEWBURGH       LGT RAIN  48  48 100 NE12      29.69F
MONTGOMERY     LGT RAIN  50  47  89 NE8       29.67S
WHITE PLAINS   LGT RAIN  48  45  89 VRB6      29.68R
ISLIP          RAIN      47  44  90 NE9       29.69R FOG
NEW YORK CITY  LGT RAIN  50  48  93 NE9       29.69R
CENTRAL PARK   LGT RAIN  48  45  89 CALM      29.71R FOG
$$

NYZ005>009-017-018-044>046-055-056-061100-
CENTRAL


CITY           SKY/WX    TMP DP  RH WIND       PRES   REMARKS
FULTON         MOCLDY    50  41  71 N10       29.80S
SYRACUSE       MOCLDY    46  42  86 N3        29.79R
ROME           CLOUDY    50  41  71 N7        29.78S
ELMIRA         LGT RAIN  49  41  74 NE9       29.76R
BINGHAMTON     CLOUDY    48  41  76 N13       29.72F
MONTICELLO     CLOUDY    48  45  87 NW5       29.70S
$$

NYZ026>034-041>043-087-061100-
NORTH


CITY           SKY/WX    TMP DP  RH WIND       PRES   REMARKS
WATERTOWN      CLEAR     37  36  96 CALM      29.82R
FORT DRUM      NOT AVBL
MASSENA        CLEAR     42  35  76 NE5       29.86R
SARANAC LAKE   CLEAR     28  26  92 N7        29.78R WCI  21
PLATTSBURGH    CLEAR     46  37  71 NW10      29.81R
$$

NYZ001>004-010>016-019>021-085-061100-
WEST


CITY           SKY/WX    TMP DP  RH WIND       PRES   REMARKS
NIAGARA FALLS  CLEAR     45  39  79 N6        29.83R
BUFFALO        PTCLDY    44  41  89 CALM      29.82F
DUNKIRK        PTCLDY    41  39  93 CALM      29.84R
JAMESTOWN      CLEAR     45  39  81 N8        29.81S
WELLSVILLE     CLOUDY    46  40  79 N7        29.79S
ROCHESTER      MOCLDY    47  43  86 N7        29.82S
PENN YAN       CLOUDY    48  41  76 VRB5      29.80R
$$

             KEY
       WCI = WIND CHILL INDEX
       VSB = VISIBILITY
       HX  = HEAT INDEX
$$




USA.gov is the U.S. government's official web portal to all federal, state and local government web resources and services.